{"data":{"norad_id":66821,"intl_designator":"2025-280A","name":"STARLINK-35966","alt_names":[],"object_type":"PAYLOAD","status":"ACTIVE","operator":null,"country":"US","launch_date":"2025-12-02","launch_site_code":"AFWTR","launch_vehicle":null,"mission":null,"orbit_class":"UNKNOWN","rcs_meters":null,"size_class":null,"mass_kg":null,"dimensions":null,"purposes":["comms"],"wikipedia_slug":null,"has_3d_model":false,"image_url":null,"decayed_at":null,"tle_current":{"epoch":"2026-09-20T05:52:19.068960Z","epoch_age_seconds":109144,"freshness":"FRESH","line1":"1 66821U 25280A   26263.24466515  .00004653  00000+0  39741-3 0  9996","line2":"2 66821  69.9997 204.1033 0003254 268.4340  91.6446 14.98336885 45215","mean_motion":14.98336885,"eccentricity":0.0003254,"inclination_deg":69.9997,"raan_deg":204.1033,"arg_perigee_deg":268.434,"mean_anomaly_deg":91.6446,"bstar":0.00039741,"rev_number":4521,"period_min":96.106557504923,"perigee_km":569.77301389284,"apogee_km":574.29618556994,"semimajor_km":6950.1715997314,"source":"CELESTRAK","updated_at":"2026-09-21T09:00:36.019361Z"}}}